Regional Weather Roundup
Issued by NWS Huntsville, AL

Home | Current Version | Previous Version | Text Only | Print | Product List | Glossary On
Versions: 1 2 3 4 5 6 7 8 9 10 11 12 13 14 15 16 17 18 19 20 21 22 23 24 25 26 27
000
ASUS44 KHUN 300410
RWRHUN

WEATHER ROUNDUP FOR THE TENNESSEE VALLEY
NATIONAL WEATHER SERVICE HUNTSVILLE AL
1100 PM CDT THU SEP 29 2016

ALZ001>004-300500-
NORTHWEST ALABAMA

CITY           SKY/WX    TMP DP  RH WIND       PRES   REMARKS
SHOALS AIRPORT CLEAR     57  51  80 NW5       30.14F
$$

ALZ005>007-016-300500-
NORTH CENTRAL ALABAMA

CITY           SKY/WX    TMP DP  RH WIND       PRES   REMARKS
DECATUR AP     CLOUDY    57  52  83 CALM      30.13S
HUNTSVILLE AP  MOCLDY    57  50  77 NW3       30.12S
MERIDIANVILLE  CLEAR     52  45  76 CALM      30.12F
REDSTONE ARSN  CLOUDY    56  52  86 VRB6      30.11S
VINEMONT AP    FAIR      52  48  86 CALM      30.14S
$$

ALZ008>010-300500-
NORTHEAST ALABAMA

CITY           SKY/WX    TMP DP  RH WIND       PRES   REMARKS
ALBERTVILLE    CLEAR     57  54  88 N3        30.10S
FORT PAYNE     CLEAR     54  46  76 CALM      30.09S
SCOTTSBORO AP  CLEAR     57  50  77 NW5       30.11S
SCOTTSBORO HCN   N/A     54 N/A N/A MISG        N/A
VALLEY HEAD      N/A     50 N/A N/A MISG        N/A
$$

TNZ076-096-097-300500-
SOUTHEASTERN MIDDLE TENNESSEE

CITY           SKY/WX    TMP DP  RH WIND       PRES   REMARKS
TULLAHOMA      PTCLDY    52  48  87 CALM      30.12F
WINCHESTER     PTCLDY    55  52  88 CALM      30.12S
$$

...SURROUNDING SITES...

CITY           SKY/WX    TMP DP  RH WIND       PRES   REMARKS
ATLANTA        CLEAR     62  47  57 NW10      30.05F
ANNISTON       CLEAR     65  46  50 CALM      30.09S
BIRMINGHAM     PTCLDY    62  50  64 N5        30.13R
CHATTANOOGA    PTCLDY    59  47  64 NW6       30.09F
CORINTH        FAIR      54  50  87 CALM      30.13F
DALTON         CLEAR     54  50  87 NW5       30.08S
GADSDEN        CLEAR     60  50  69 NW3       30.10S
GOLDEN TRNGL   CLEAR     61  46  59 N3        30.13R
HALEYVILLE     FAIR      54  50  86 N3        30.15F
JACKSON TN       N/A    N/A N/A N/A MISG      30.14F
MEMPHIS        MOCLDY    64  53  67 N5        30.15S
NASHVILLE      PTCLDY    54  51  90 CALM      30.12S
OXFORD MS      FAIR      57  50  77 CALM      30.16F
ROME           CLEAR     57  47  69 NW5       30.07F
SAVANNAH       PTCLDY    52  52 100 CALM      30.12F
TUPELO         PTCLDY    59  50  72 NW3       30.14S
TUSCALOOSA     CLEAR     59  50  72 CALM      30.11S
$$

...GULF COAST WEATHER...

CITY           SKY/WX    TMP DP  RH WIND       PRES   REMARKS
GULFPORT       CLEAR     66  55  67 N7        30.09S
PASCAGOULA     CLEAR     60  58  92 CALM      30.09S
MOBILE         CLEAR     62  53  72 N6        30.11R
GULF SHORES    CLEAR     65  55  68 NW6       30.08S
PENSACOLA      CLEAR     69  50  50 N8        30.07S
DESTIN         CLEAR     74  52  46 N12       30.06S
PANAMA CITY    MOCLDY    74  55  51 NE8       30.04S
APPALACHICOLA  CLEAR     75  66  73 N10       30.02R
$$





USA.gov is the U.S. government's official web portal to all federal, state and local government web resources and services.